This is the latest recevied weather packets stored in our database for station/object K2CAT. If no packets are shown the sender has not sent any weather packets the latest 10 day(s).
| Time | Temp. | Humidity | Pressure | Rain* | Wind** | Luminosity | Snow |
|---|---|---|---|---|---|---|---|
| 1777748253 | 16.11° C | 43% | 1011 hPa | 0 mm | - | 239 W/m² | - |
| 1777747949 | 16.67° C | 49% | 1011.2 hPa | 0 mm | - | 806 W/m² | - |
| 1777747646 | 15.56° C | 41% | 1010.9 hPa | 0 mm | - | 809 W/m² | - |
| 1777747341 | 15° C | 54% | 1011 hPa | 0 mm | - | 279 W/m² | - |
| 1777747038 | 15° C | 48% | 1010.9 hPa | 0 mm | - | 302 W/m² | - |
| 1777746734 | 14.44° C | 54% | 1011.2 hPa | 0 mm | - | 264 W/m² | - |
| 1777746430 | 13.89° C | 55% | 1011.1 hPa | 0 mm | - | 198 W/m² | - |
| 1777746125 | 14.44° C | 54% | 1011.1 hPa | 0 mm | - | 143 W/m² | - |
| 1777745823 | 15° C | 54% | 1011.2 hPa | 0 mm | - | 310 W/m² | - |
| 1777745522 | 15.56° C | 61% | 1011.2 hPa | 0 mm | - | 403 W/m² | - |
| 1777745218 | 15° C | 60% | 1011.2 hPa | 0 mm | - | 343 W/m² | - |
| 1777744916 | 14.44° C | 58% | 1011.2 hPa | 0 mm | - | 323 W/m² | - |
| 1777744615 | 14.44° C | 60% | 1011.1 hPa | 0 mm | - | 292 W/m² | - |
| 1777744311 | 13.89° C | 42% | 1011.2 hPa | 0 mm | - | 240 W/m² | - |
| 1777744008 | 15° C | 42% | 1011.3 hPa | 0 mm | - | 237 W/m² | - |
| 1777743704 | 14.44° C | 53% | 1011.5 hPa | 0 mm | - | 318 W/m² | - |
| 1777743402 | 13.89° C | 58% | 1011.3 hPa | 0 mm | - | 228 W/m² | - |
| 1777743099 | 14.44° C | 55% | 1011.4 hPa | 0 mm | - | 220 W/m² | - |
| 1777742796 | 14.44° C | 50% | 1011.4 hPa | 0 mm | - | 201 W/m² | - |
| 1777742493 | 13.89° C | 52% | 1011.5 hPa | 0 mm | - | 185 W/m² | - |
| 1777742188 | 15° C | 57% | 1011.5 hPa | 0 mm | - | 221 W/m² | - |
| 1777741886 | 14.44° C | 53% | 1011.5 hPa | 0 mm | - | 277 W/m² | - |
| 1777741583 | 14.44° C | 58% | 1011.4 hPa | 0 mm | - | 258 W/m² | - |
| 1777741280 | 13.33° C | 55% | 1011.6 hPa | 0 mm | - | 383 W/m² | - |
| 1777740976 | 13.89° C | 53% | 1011.8 hPa | 0 mm | - | 240 W/m² | - |
* Rain latest hour (hover to see other rain measurements)
** Current wind speed in m/s (hover to see current wind gust speed)